Location: Asheville, NC
(35.6000°N, 82.5500°W)
Time: 06:05:45
(UTC-04:00)

Vanguard 1 Rocket - Pass Details

Date: 18 February 2018
Orbit: 652 x 4225 km, 34.3° (Epoch: 19 May)

Event Time Altitude Azimuth Distance (km) Brightness Sun altitude
Rises 00:26:25 0° 248° (WSW) 7,058 11.9 -65.7°
Enters shadow 00:29:59 - 247° (WSW) 6,467 11.6 -65.8°
Exits shadow 01:07:58 39° 85° (E) 5,137 11.0 -65.4°
Drops below altitude 10° 01:18:45 10° 82° (E) 6,606 11.8 -64.8°
Sets 01:23:03 0° 82° (E) 7,296 12.2 -64.5°
